Columbia Owens, SC

4:48 PM EDT on October 21, 2019 (GMT -0400)
Columbia Owens Downtown

Weather History for KCUB - August, 2019

Change the Weather History Date:

Wednesday, August 21, 2019

  Actual Average Record
Temperature  
Mean Temperature 87 °F 81 °F  
Max Temperature 97 °F 90 °F 101 °F (2007)
Min Temperature 76 °F 71 °F 69 °F (1999)
Degree Days  
Heating Degree Days 0 0  
Month to date heating degree days 0 0  
Since 1 June heating degree days 0 0  
Since 1 July heating degree days 0 0  
Cooling Degree Days 22 16  
Month to date cooling degree days 419 351  
Year to date cooling degree days 1978 1667  
Since 1 June cooling degree days 1430 1331  
Growing Degree Days 36 (Base 50)    
Moisture  
Dew Point 70 °F    
Average Humidity 63    
Maximum Humidity 88    
Minimum Humidity 39    
Precipitation  
Precipitation T in 0.16 in 1.32 in (2006)
Month to date precipitation 0.37 3.51  
Year to date precipitation 22.08 30.42  
Sea Level Pressure  
Sea Level Pressure 30.06 in    
Wind  
Wind Speed 6 mph (SW)    
Max Wind Speed 14 mph    
Max Gust Speed 18 mph    
Visibility 10 miles    
Events Rain    
T = Trace of Precipitation, MM = Missing Value Source: NWS Daily Summary

Daily Weather History Graph

Daily Weather History Graph

Search for Another Location

Airport or City:

Astronomy

Aug. 21, 2019 Rise Set
Actual Time 6:49 AM EDT 8:04 PM EDT
Civil Twilight 6:23 AM EDT 8:30 PM EDT
Nautical Twilight 5:52 AM EDT 9:01 PM EDT
Astronomical Twilight 5:20 AM EDT 9:33 PM EDT
Moon 11:37 PM EDT 12:09 PM EDT
Length of Visible Light 14h 06m
Length of Day
13h 14m
Waning Gibbous, 69% of the Moon is Illuminated
Aug 21
Waning Gibbous
Aug 23
Last Quarter
Aug 30
New
Sep 5
First Quarter
Sep 14
Full

Hourly Weather History & Observations

Time (EDT) Temp. Heat Index Dew Point Humidity Pressure Visibility Wind Dir Wind Speed Gust Speed Precip Events Conditions
12:53 AM 80.1 °F 84.2 °F 73.0 °F 79% 30.11 in 10.0 mi WSW 5.8 mph - N/A   Overcast
1:53 AM 80.1 °F 83.8 °F 72.0 °F 76% 30.10 in 10.0 mi Variable 6.9 mph - N/A   Mostly Cloudy
2:53 AM 79.0 °F - 72.0 °F 79% 30.08 in 10.0 mi South 5.8 mph - 0.00 in Rain Light Rain
3:53 AM 77.0 °F - 73.0 °F 88% 30.08 in 10.0 mi Calm Calm - 0.00 in Rain Light Rain
4:53 AM 77.0 °F - 73.0 °F 88% 30.07 in 10.0 mi Calm Calm - 0.00 in   Clear
5:53 AM 77.0 °F - 73.0 °F 88% 30.08 in 10.0 mi Calm Calm - N/A   Clear
6:53 AM 77.0 °F - 73.0 °F 88% 30.08 in 10.0 mi Calm Calm - N/A   Clear
7:53 AM 78.1 °F - 73.0 °F 84% 30.09 in 10.0 mi SSW 5.8 mph - N/A   Clear
8:53 AM 81.0 °F 85.2 °F 72.0 °F 74% 30.10 in 10.0 mi SSW 5.8 mph - N/A   Clear
9:53 AM 84.9 °F 89.4 °F 70.0 °F 61% 30.09 in 10.0 mi WSW 8.1 mph - N/A   Clear
10:53 AM 88.0 °F 91.4 °F 68.0 °F 51% 30.10 in 10.0 mi West 10.4 mph - N/A   Clear
11:53 AM 91.0 °F 94.3 °F 66.9 °F 45% 30.10 in 10.0 mi WSW 8.1 mph - N/A   Clear
12:53 PM 93.0 °F 97.4 °F 68.0 °F 44% 30.08 in 10.0 mi West 10.4 mph - N/A   Clear
1:53 PM 95.0 °F 99.5 °F 68.0 °F 41% 30.06 in 10.0 mi WSW 9.2 mph - N/A   Clear
2:53 PM 95.0 °F 99.0 °F 66.9 °F 40% 30.04 in 10.0 mi NW 4.6 mph 17.3 mph N/A   Scattered Clouds
3:53 PM 95.0 °F 97.9 °F 66.0 °F 38% 30.02 in 10.0 mi SW 8.1 mph - N/A   Partly Cloudy
5:53 PM 95.0 °F 99.5 °F 68.0 °F 41% 30.00 in 10.0 mi SW 9.2 mph - N/A   Clear
6:53 PM 93.0 °F 97.4 °F 68.0 °F 44% 30.00 in 10.0 mi SW 6.9 mph - N/A   Clear
7:53 PM 91.0 °F 95.6 °F 69.1 °F 48% 30.01 in 10.0 mi SW 5.8 mph - N/A   Clear
8:53 PM 87.1 °F 93.6 °F 72.0 °F 61% 30.03 in 10.0 mi South 5.8 mph - N/A   Clear
9:53 PM 84.9 °F 90.1 °F 71.1 °F 63% 30.04 in 10.0 mi South 6.9 mph - N/A   Clear
11:53 PM 82.0 °F 85.9 °F 70.0 °F 67% 30.06 in 10.0 mi South 4.6 mph - N/A   Clear